TimePST,TemperatureF,Dew PointF,Humidity,Sea Level PressureIn,VisibilityMPH,Wind Direction,Wind SpeedMPH,Gust SpeedMPH,PrecipitationIn,Events,Conditions,WindDirDegrees,DateUTC
12:53 AM,32.0,30.0,92,30.25,5.0,Calm,Calm,-,N/A,,Clear,0,2014-01-24 08:53:00
1:27 AM,32.0,28.9,88,30.24,5.0,SW,4.6,-,N/A,,Scattered Clouds,220,2014-01-24 09:27:00
1:34 AM,32.0,28.9,88,30.24,2.5,Calm,Calm,-,N/A,,Mostly Cloudy,0,2014-01-24 09:34:00
1:53 AM,32.0,30.0,92,30.26,0.2,Calm,Calm,-,N/A,Fog,Fog,0,2014-01-24 09:53:00
2:11 AM,33.1,30.9,92,30.24,0.8,Calm,Calm,-,N/A,,Overcast,0,2014-01-24 10:11:00
2:22 AM,33.1,32.0,96,30.24,1.2,Calm,Calm,-,N/A,,Overcast,0,2014-01-24 10:22:00
2:33 AM,33.1,32.0,96,30.24,0.8,Calm,Calm,-,N/A,,Overcast,0,2014-01-24 10:33:00
2:48 AM,33.8,32.0,93,30.25,0.2,Calm,Calm,-,N/A,Fog,Fog,0,2014-01-24 10:48:00
2:53 AM,33.1,32.0,96,30.26,0.2,Calm,Calm,-,N/A,Fog,Fog,0,2014-01-24 10:53:00
3:00 AM,33.1,32.0,96,30.25,0.2,Calm,Calm,-,N/A,Fog,Fog,0,2014-01-24 11:00:00
3:53 AM,32.0,30.9,96,30.26,0.2,Calm,Calm,-,N/A,Fog,Fog,0,2014-01-24 11:53:00
4:07 AM,32.0,30.9,96,30.25,0.2,Calm,Calm,-,N/A,Fog,Fog,0,2014-01-24 12:07:00
4:40 AM,33.1,30.9,92,30.25,0.2,Calm,Calm,-,N/A,Fog,Fog,0,2014-01-24 12:40:00
4:53 AM,33.1,30.9,92,30.26,0.2,Calm,Calm,-,N/A,Fog,Fog,0,2014-01-24 12:53:00
5:53 AM,32.0,30.9,96,30.27,0.2,South,3.5,-,N/A,Fog,Fog,190,2014-01-24 13:53:00
6:53 AM,32.0,30.0,92,30.27,0.2,Calm,Calm,-,N/A,Fog,Fog,0,2014-01-24 14:53:00
7:11 AM,32.0,30.0,92,30.25,0.2,Variable,3.5,-,N/A,Fog,Fog,0,2014-01-24 15:11:00
7:53 AM,30.9,30.0,96,30.28,0.2,South,3.5,-,N/A,Fog,Light Freezing Fog,180,2014-01-24 15:53:00
8:53 AM,30.9,30.0,96,30.30,0.2,SE,4.6,-,N/A,Fog,Light Freezing Fog,130,2014-01-24 16:53:00
9:02 AM,32.0,30.0,92,30.28,1.0,Calm,Calm,-,N/A,,Overcast,0,2014-01-24 17:02:00
9:09 AM,32.0,30.0,92,30.28,0.5,Calm,Calm,-,N/A,Fog,Fog,0,2014-01-24 17:09:00
9:30 AM,32.0,30.0,92,30.29,0.2,SSE,4.6,-,N/A,Fog,Fog,150,2014-01-24 17:30:00
9:51 AM,33.8,30.2,87,30.29,1.0,Calm,Calm,-,N/A,,Overcast,0,2014-01-24 17:51:00
9:52 AM,33.1,32.0,96,30.31,1.0,Calm,Calm,-,N/A,,Overcast,0,2014-01-24 17:52:00
10:01 AM,33.1,32.0,96,30.30,2.5,Calm,Calm,-,N/A,,Mostly Cloudy,0,2014-01-24 18:01:00
10:17 AM,34.0,33.1,96,30.30,2.5,SW,5.8,-,N/A,,Scattered Clouds,220,2014-01-24 18:17:00
10:20 AM,34.0,32.0,92,30.30,1.8,SW,4.6,-,N/A,,Mostly Cloudy,220,2014-01-24 18:20:00
10:42 AM,36.0,34.0,93,30.30,3.0,Calm,Calm,-,N/A,,Mostly Cloudy,0,2014-01-24 18:42:00
10:53 AM,37.0,34.0,89,30.31,6.0,Calm,Calm,-,N/A,,Scattered Clouds,0,2014-01-24 18:53:00
11:53 AM,44.1,36.0,73,30.30,10.0,Calm,Calm,-,N/A,,Clear,0,2014-01-24 19:53:00
12:53 PM,48.9,36.0,61,30.27,10.0,Variable,4.6,-,N/A,,Clear,0,2014-01-24 20:53:00
1:53 PM,55.0,36.0,49,30.24,10.0,Calm,Calm,-,N/A,,Clear,0,2014-01-24 21:53:00
2:53 PM,57.9,33.1,39,30.22,10.0,Calm,Calm,-,N/A,,Clear,0,2014-01-24 22:53:00
3:53 PM,61.0,34.0,36,30.20,10.0,Calm,Calm,-,N/A,,Clear,0,2014-01-24 23:53:00
4:53 PM,55.9,36.0,47,30.21,10.0,WNW,3.5,-,N/A,,Clear,290,2014-01-25 00:53:00
5:53 PM,50.0,37.9,63,30.22,10.0,Calm,Calm,-,N/A,,Clear,0,2014-01-25 01:53:00
6:53 PM,46.9,37.0,68,30.24,10.0,Calm,Calm,-,N/A,,Clear,0,2014-01-25 02:53:00
7:53 PM,43.0,36.0,76,30.25,10.0,Calm,Calm,-,N/A,,Clear,0,2014-01-25 03:53:00
8:53 PM,41.0,35.1,79,30.27,8.0,Calm,Calm,-,N/A,,Clear,0,2014-01-25 04:53:00
9:53 PM,39.0,34.0,82,30.29,7.0,Calm,Calm,-,N/A,,Clear,0,2014-01-25 05:53:00
10:53 PM,37.9,32.0,79,30.31,6.0,Calm,Calm,-,N/A,,Haze,0,2014-01-25 06:53:00
11:53 PM,37.0,32.0,82,30.33,5.0,Calm,Calm,-,N/A,,Haze,0,2014-01-25 07:53:00